Satellite-Ground Cal/Val Site Overpasses Predictions

Prediction of Satellite NPP Overpassing Cal/Val Site: Antarctic Dome C

Ground Cal/Val Site Location: Latitude: -75.10, Longitude: 123.35; Satellite-Ground Site NADIR distance within 100 km.

Table of predicted overpasses for the next 14.0 days since TLE Epoch: 12/11/2021
Interval Starting Time Ending Time Minimum Distance Time Minimum Distance (km)
1 12/11/2021 14:37:30 12/11/2021 14:37:46 12/11/2021 14:37:38 83.52
2 12/12/2021 07:39:03 12/12/2021 07:39:29 12/12/2021 07:39:16 41.13
3 12/13/2021 07:20:15 12/13/2021 07:20:36 12/13/2021 07:20:26 68.75
4 12/15/2021 15:02:28 12/15/2021 15:02:51 12/15/2021 15:02:40 60.53
5 12/16/2021 14:43:36 12/16/2021 14:44:01 12/16/2021 14:43:49 48.93
6 12/17/2021 07:45:18 12/17/2021 07:45:36 12/17/2021 07:45:27 75.93
7 12/18/2021 07:26:22 12/18/2021 07:26:50 12/18/2021 07:26:36 31.82
8 12/20/2021 15:08:48 12/20/2021 15:08:53 12/20/2021 15:08:50 97.94
9 12/21/2021 14:49:45 12/21/2021 14:50:14 12/21/2021 14:49:59 13.75
